sat.trackr.live / text

‹ back to catalog

YAOGAN-50 01

NORAD 67433 · 2026-006A

PAYLOAD ACTIVE UNKNOWN

§ Identity

Operator
Country
PRC
Launch date
2026-01-13
Launch site
TAISC
Launch vehicle
Mass (kg)
RCS (m²)

External: N2YO · Heavens-Above · Gunter

§ Orbital elements

Epoch: 2026-09-20T08:23:56.784192Z

Period
104.10 min
Inclination
142.0423°
Eccentricity
0.0000754
Mean motion
13.83239720 rev/d
Perigee alt
951.9 km
Apogee alt
953.0 km
Semi-major
7,330.6 km
B*
-2.3510e-4
RAAN
315.6593°
Arg perigee
295.4620°
Mean anomaly
64.6021°
Rev number
3,461

§ Raw data

YAOGAN-50 011 67433U 26006A   26263.34996278 -.00000073  00000+0 -23510-3 0  99992 67433 142.0423 315.6593 0000754 295.4620  64.6021 13.83239720 34618

JSON: /api/v1/satellites/67433 · /tle

For live sub-satellite position, see the globe view (requires WebGL).

§ Visibility from observer

Set your observer location to see the next 7 days of passes ≥ 10°. The values pass through the URL so the page stays shareable.

No JS? Fill the form by hand. The geolocation button needs JavaScript.